Weather History for Rickenbacker, OH

Change the Weather History Date:

Sunday, October 16, 2011

  Actual Average Record
Temperature  
Mean Temperature 61 °F -  
Max Temperature 77 °F 63 °F 77 °F (1999)
Min Temperature 45 °F 43 °F 34 °F (2012)
Degree Days  
Heating Degree Days 4    
Growing Degree Days 11 (Base 50)    
Moisture  
Dew Point 36 °F    
Average Humidity 48    
Maximum Humidity 67    
Minimum Humidity 24    
Precipitation  
Precipitation 0.00 in - - ()
Sea Level Pressure  
Sea Level Pressure 29.90 in    
Wind  
Wind Speed 10 mph (SSW)    
Max Wind Speed 28 mph    
Max Gust Speed 34 mph    
Visibility 10 miles    
Events      
Averages and records for this station are not official NWS values.
T = Trace of Precipitation, MM = Missing Value Source: NWS Daily Summary

Daily Weather History Graph

Daily Weather History Graph

Search for Another Location

Airport:

Trip Planner

Search our weather history database for the weather conditions in past years. The results will help you decide how hot, cold, wet, or windy it might be!

Date:

Astronomy

Oct. 16, 2011 Rise Set
Actual Time 7:42 AM EDT 6:51 PM EDT
Civil Twilight 7:15 AM EDT 7:18 PM EDT
Nautical Twilight 6:44 AM EDT 7:49 PM EDT
Astronomical Twilight 6:12 AM EDT 8:20 PM EDT
Moon 9:36 PM EDT (10/16) 11:58 AM EDT (10/16)
Length of Visible Light 12h 02m
Length of Day
11h 08m
Waning Gibbous, 82% of the Moon is Illuminated
Oct 16
Waning Gibbous
Oct 19
Last Quarter
Oct 26
New
Nov 2
First Quarter
Nov 10
Full

Hourly Weather History & Observations

Time (EDT) Temp. Windchill Dew Point Humidity Pressure Visibility Wind Dir Wind Speed Gust Speed Precip Events Conditions
12:15 AM 46.9 °F - 34.0 °F 61% 29.95 in 10.0 mi SW 8.1 mph - N/A   Clear
12:35 AM 46.6 °F - 34.2 °F 62% 29.96 in 10.0 mi SW 5.8 mph - N/A   Clear
12:55 AM 45.9 °F 42.9 °F 34.3 °F 64% 29.96 in 10.0 mi SW 5.8 mph - N/A   Clear
1:15 AM 45.3 °F 42.3 °F 34.7 °F 66% 29.97 in 10.0 mi SW 5.8 mph - N/A   Scattered Clouds
1:35 AM 45.7 °F 41.5 °F 34.9 °F 66% 29.97 in 10.0 mi SSW 8.1 mph - N/A   Scattered Clouds
1:55 AM 46.6 °F - 34.9 °F 64% 29.98 in 10.0 mi SW 5.8 mph - N/A   Clear
2:15 AM 46.8 °F - 35.2 °F 64% 29.98 in 10.0 mi SW 9.2 mph - N/A   Scattered Clouds
2:35 AM 47.1 °F - 35.4 °F 64% 29.99 in 10.0 mi SW 5.8 mph - N/A   Clear
2:55 AM 46.2 °F 43.3 °F 35.2 °F 66% 30.00 in 10.0 mi SW 5.8 mph - N/A   Clear
3:15 AM 46.0 °F 43.1 °F 35.4 °F 66% 30.00 in 10.0 mi SW 5.8 mph - N/A   Clear
3:35 AM 45.5 °F 41.3 °F 35.1 °F 67% 29.99 in 10.0 mi SW 8.1 mph - N/A   Scattered Clouds
3:55 AM 46.4 °F 42.4 °F 35.6 °F 66% 29.99 in 10.0 mi SW 8.1 mph - N/A   Mostly Cloudy
4:15 AM 47.8 °F - 36.1 °F 64% 29.99 in 10.0 mi SW 6.9 mph - N/A   Overcast
4:35 AM 48.4 °F - 36.5 °F 64% 29.98 in 10.0 mi SW 8.1 mph - N/A   Overcast
4:55 AM 49.5 °F - 36.9 °F 62% 29.98 in 10.0 mi SW 6.9 mph - N/A   Overcast
5:15 AM 50.5 °F - 36.9 °F 59% 29.98 in 10.0 mi SSW 8.1 mph - N/A   Overcast
5:35 AM 51.3 °F - 36.9 °F 58% 29.98 in 10.0 mi SSW 8.1 mph - N/A   Overcast
5:55 AM 51.8 °F - 37.0 °F 57% 29.98 in 10.0 mi SSW 8.1 mph - N/A   Overcast
6:15 AM 51.8 °F - 37.4 °F 58% 29.98 in 10.0 mi SSW 8.1 mph - N/A   Overcast
6:35 AM 52.0 °F - 37.2 °F 57% 29.98 in 10.0 mi SSW 9.2 mph - N/A   Overcast
6:55 AM 51.8 °F - 37.4 °F 58% 29.97 in 10.0 mi SSW 9.2 mph - N/A   Overcast
7:15 AM 52.7 °F - 37.2 °F 56% 29.97 in 10.0 mi SSW 9.2 mph - N/A   Overcast
7:35 AM 52.9 °F - 37.4 °F 56% 29.96 in 10.0 mi SSW 11.5 mph - N/A   Overcast
7:55 AM 53.4 °F - 37.2 °F 54% 29.96 in 10.0 mi SSW 10.4 mph - N/A   Overcast
8:15 AM 53.6 °F - 37.4 °F 54% 29.96 in 10.0 mi SSW 8.1 mph - N/A   Overcast
8:35 AM 53.6 °F - 37.6 °F 55% 29.95 in 10.0 mi South 8.1 mph - N/A   Overcast
8:55 AM 53.8 °F - 37.6 °F 54% 29.95 in 10.0 mi South 9.2 mph - N/A   Overcast
9:15 AM 54.5 °F - 37.4 °F 52% 29.93 in 10.0 mi South 10.4 mph - N/A   Overcast
9:35 AM 55.2 °F - 37.4 °F 51% 29.93 in 10.0 mi South 9.2 mph - N/A   Overcast
9:55 AM 55.6 °F - 37.4 °F 50% 29.93 in 10.0 mi South 9.2 mph - N/A   Overcast
10:15 AM 56.1 °F - 36.9 °F 48% 29.93 in 10.0 mi South 13.8 mph 18.4 mph N/A   Overcast
10:35 AM 56.5 °F - 36.7 °F 48% 29.92 in 10.0 mi South 12.7 mph - N/A   Overcast
10:55 AM 57.0 °F - 37.0 °F 47% 29.90 in 10.0 mi South 12.7 mph 18.4 mph N/A   Overcast
11:15 AM 57.7 °F - 37.4 °F 47% 29.90 in 10.0 mi South 10.4 mph - N/A   Overcast
11:35 AM 59.0 °F - 37.2 °F 44% 29.88 in 10.0 mi South 13.8 mph 19.6 mph N/A   Overcast
11:55 AM 61.5 °F - 36.1 °F 39% 29.86 in 10.0 mi SSW 15.0 mph - N/A   Overcast
12:15 PM 64.9 °F - 34.3 °F 32% 29.85 in 10.0 mi SSW 27.6 mph 34.5 mph N/A   Mostly Cloudy
12:35 PM 67.3 °F - 32.4 °F 27% 29.83 in 10.0 mi SSW 20.7 mph 31.1 mph N/A   Mostly Cloudy
12:55 PM 68.2 °F - 33.1 °F 27% 29.83 in 10.0 mi WSW 21.9 mph 27.6 mph N/A   Mostly Cloudy
1:15 PM 70.0 °F - 33.3 °F 26% 29.81 in 10.0 mi SW 23.0 mph 28.8 mph N/A   Scattered Clouds
1:35 PM 71.1 °F - 33.3 °F 25% 29.80 in 10.0 mi WSW 24.2 mph - N/A   Mostly Cloudy
1:55 PM 71.2 °F - 33.8 °F 25% 29.78 in 10.0 mi North - - N/A   Mostly Cloudy
2:15 PM 72.9 °F - 34.3 °F 24% 29.76 in 10.0 mi SW 26.5 mph 34.5 mph N/A   Mostly Cloudy
2:35 PM 72.9 °F - 35.2 °F 25% 29.74 in 10.0 mi SW 19.6 mph 33.4 mph N/A   Overcast
2:55 PM 73.4 °F - 35.6 °F 25% 29.73 in 10.0 mi SW 20.7 mph 29.9 mph N/A   Mostly Cloudy
3:15 PM 75.4 °F - 36.3 °F 24% 29.72 in 10.0 mi SW 21.9 mph 31.1 mph N/A   Scattered Clouds
3:35 PM 73.8 °F - 36.5 °F 26% 29.73 in 10.0 mi WSW 17.3 mph 23.0 mph N/A   Clear
3:55 PM 75.9 °F - 38.1 °F 26% 29.71 in 10.0 mi WSW 17.3 mph 28.8 mph N/A   Clear
4:15 PM 77.4 °F - 38.8 °F 25% 29.70 in 10.0 mi WSW 21.9 mph 27.6 mph N/A   Clear
4:35 PM 77.7 °F - 38.3 °F 24% 29.70 in 10.0 mi SW 23.0 mph - N/A   Clear
4:55 PM 77.7 °F - 38.7 °F 25% 29.68 in 10.0 mi SW 21.9 mph - N/A   Clear
5:15 PM 77.7 °F - 39.0 °F 25% 29.69 in 10.0 mi WSW 23.0 mph - N/A   Clear
5:35 PM 77.5 °F - 40.3 °F 26% 29.69 in 10.0 mi North - - N/A   Clear
5:55 PM 76.6 °F - 39.4 °F 26% 29.70 in 10.0 mi WSW 21.9 mph 26.5 mph N/A   Mostly Cloudy
6:15 PM 75.7 °F - 40.3 °F 28% 29.67 in 10.0 mi SW 9.2 mph - N/A   Scattered Clouds
6:35 PM 74.7 °F - 42.1 °F 31% 29.70 in 10.0 mi West 13.8 mph - N/A   Mostly Cloudy
6:55 PM 74.7 °F - 42.3 °F 31% 29.69 in 10.0 mi West 13.8 mph - N/A   Overcast
7:15 PM 74.8 °F - 42.1 °F 31% 29.72 in 10.0 mi WNW 12.7 mph 21.9 mph N/A   Overcast
7:35 PM 73.4 °F - 43.0 °F 34% 29.73 in 10.0 mi WNW 12.7 mph 20.7 mph N/A   Mostly Cloudy
7:55 PM 71.4 °F - 43.9 °F 37% 29.73 in 10.0 mi WNW 12.7 mph 18.4 mph N/A   Mostly Cloudy
8:15 PM 70.7 °F - 43.9 °F 38% 29.74 in 10.0 mi WNW 15.0 mph 21.9 mph N/A   Overcast
8:35 PM 67.1 °F - 45.3 °F 45% 29.77 in 10.0 mi NW 18.4 mph 28.8 mph N/A Rain Light Rain
8:55 PM 63.5 °F - 45.9 °F 53% 29.77 in 10.0 mi NW 13.8 mph - N/A   Scattered Clouds
9:15 PM 63.0 °F - 44.2 °F 50% 29.79 in 10.0 mi NW 13.8 mph - N/A   Mostly Cloudy
9:35 PM 62.6 °F - 43.7 °F 50% 29.79 in 10.0 mi NW 12.7 mph - N/A   Overcast
9:55 PM 62.1 °F - 43.7 °F 51% 29.80 in 10.0 mi NW 12.7 mph 16.1 mph N/A   Overcast
10:15 PM 61.7 °F - 43.9 °F 52% 29.81 in 10.0 mi WNW 6.9 mph 18.4 mph N/A   Overcast
10:35 PM 61.3 °F - 44.1 °F 53% 29.82 in 10.0 mi NW 9.2 mph - N/A   Overcast
10:55 PM 61.2 °F - 43.3 °F 52% 29.83 in 10.0 mi NNW 9.2 mph - N/A   Overcast
11:35 PM 60.4 °F - 37.2 °F 42% 29.84 in 10.0 mi NW 9.2 mph - N/A   Overcast
11:55 PM 59.5 °F - 37.2 °F 43% 29.84 in 10.0 mi NW 9.2 mph - N/A   Overcast